| time (UTC) | temp F | wind direction | speed knots | gust knots | rain 1hr in | rain 24hr in | rain mn in | humidity % | barometer mb |
| 20260905085527 | 75 | 0 | 0.0 | 0.0 | 0.00 | 0.60 | 0.00 | 97 | 1013.0 |
| 20260905085025 | 75 | 0 | 0.0 | 0.0 | 0.00 | 0.60 | 0.00 | 97 | 1012.9 |
| 20260905084549 | 75 | 0 | 0.0 | 0.0 | 0.00 | 0.60 | 0.00 | 97 | 1012.8 |
| 20260905084024 | 75 | 0 | 0.0 | 0.0 | 0.00 | 0.60 | 0.00 | 97 | 1012.8 |
| 20260905083520 | 75 | 0 | 0.0 | 0.0 | 0.00 | 0.60 | 0.00 | 97 | 1012.8 |
| 20260905083103 | 75 | 0 | 0.0 | 0.0 | 0.00 | 0.60 | 0.00 | 97 | 1012.8 |
| 20260905082523 | 75 | 0 | 0.0 | 0.0 | 0.00 | 0.60 | 0.00 | 97 | 1012.9 |
| 20260905082021 | 75 | 0 | 0.0 | 0.0 | 0.00 | 0.60 | 0.00 | 97 | 1012.9 |
| 20260905081541 | 75 | 0 | 0.0 | 0.0 | 0.00 | 0.60 | 0.00 | 97 | 1013.0 |
| 20260905081021 | 75 | 0 | 0.0 | 0.0 | 0.00 | 0.60 | 0.00 | 97 | 1013.0 |
| 20260905080527 | 75 | 0 | 0.0 | 0.0 | 0.00 | 0.60 | 0.00 | 97 | 1013.0 |
| 20260905080048 | 75 | 0 | 0.0 | 0.0 | 0.00 | 0.60 | 0.00 | 97 | 1013.0 |
| 20260905075523 | 75 | 0 | 0.0 | 0.0 | 0.00 | 0.60 | 0.00 | 97 | 1013.1 |
| 20260905075023 | 75 | 0 | 0.0 | 0.0 | 0.00 | 0.60 | 0.00 | 97 | 1013.0 |
| 20260905074547 | 75 | 0 | 0.0 | 0.0 | 0.00 | 0.60 | 0.00 | 97 | 1013.1 |
| 20260905074021 | 75 | 0 | 0.0 | 0.0 | 0.00 | 0.60 | 0.00 | 97 | 1013.0 |
| 20260905073523 | 75 | 0 | 0.0 | 0.0 | 0.00 | 0.60 | 0.00 | 97 | 1013.1 |
| 20260905073053 | 75 | 0 | 0.0 | 0.0 | 0.00 | 0.60 | 0.00 | 97 | 1013.0 |
| 20260905072523 | 75 | 0 | 0.0 | 0.0 | 0.00 | 0.60 | 0.00 | 97 | 1013.1 |
| 20260905072023 | 75 | 0 | 0.0 | 0.0 | 0.00 | 0.60 | 0.00 | 97 | 1013.1 |
| 20260905071543 | 75 | 0 | 0.0 | 0.0 | 0.00 | 0.60 | 0.00 | 97 | 1013.1 |
| 20260905071020 | 75 | 0 | 0.0 | 0.0 | 0.00 | 0.60 | 0.00 | 97 | 1013.0 |
| 20260905070527 | 75 | 0 | 0.0 | 0.0 | 0.00 | 0.60 | 0.00 | 97 | 1013.2 |
| 20260905070051 | 75 | 0 | 0.0 | 0.0 | 0.00 | 0.60 | 0.00 | 97 | 1013.3 |
| 20260905065525 | 75 | 0 | 0.0 | 0.0 | 0.00 | 0.60 | 0.00 | 97 | 1013.1 |
| 20260905065022 | 75 | 0 | 0.0 | 0.0 | 0.00 | 0.60 | 0.00 | 97 | 1013.3 |
| 20260905064607 | 75 | 0 | 0.0 | 0.0 | 0.00 | 0.60 | 0.00 | 97 | 1013.4 |
| 20260905064020 | 75 | 0 | 0.0 | 0.0 | 0.00 | 0.60 | 0.00 | 97 | 1013.4 |
| 20260905063528 | 75 | 0 | 0.0 | 0.0 | 0.00 | 0.60 | 0.00 | 97 | 1013.4 |
| 20260905063042 | 75 | 0 | 0.0 | 0.0 | 0.00 | 0.60 | 0.00 | 97 | 1013.4 |
| 20260905062519 | 75 | 0 | 0.0 | 0.0 | 0.00 | 0.60 | 0.00 | 97 | 1013.4 |
| 20260905062022 | 75 | 0 | 0.0 | 0.0 | 0.00 | 0.60 | 0.00 | 97 | 1013.5 |
| 20260905061545 | 75 | 0 | 0.0 | 0.0 | 0.00 | 0.60 | 0.00 | 97 | 1013.5 |
| 20260905061021 | 75 | 0 | 0.0 | 0.0 | 0.00 | 0.60 | 0.00 | 97 | 1013.5 |
| 20260905060524 | 75 | 0 | 0.0 | 0.0 | 0.00 | 0.60 | 0.00 | 97 | 1013.5 |
| 20260905060046 | 75 | 0 | 0.0 | 0.0 | 0.00 | 0.60 | 0.00 | 97 | 1013.6 |
| 20260905055522 | 75 | 0 | 0.0 | 0.0 | 0.00 | 0.60 | 0.00 | 97 | 1013.7 |
| 20260905055023 | 75 | 0 | 0.0 | 0.0 | 0.00 | 0.60 | 0.00 | 97 | 1013.7 |
| 20260905054620 | 75 | 0 | 0.0 | 0.0 | 0.00 | 0.60 | 0.00 | 97 | 1013.7 |
| 20260905054023 | 75 | 0 | 0.0 | 0.0 | 0.00 | 0.60 | 0.00 | 97 | 1013.8 |
| 20260905053523 | 76 | 0 | 0.0 | 0.0 | 0.00 | 0.60 | 0.00 | 97 | 1013.7 |
| 20260905053044 | 76 | 0 | 0.0 | 0.0 | 0.00 | 0.60 | 0.00 | 97 | 1013.8 |
| 20260905052523 | 75 | 0 | 0.0 | 0.0 | 0.00 | 0.60 | 0.00 | 97 | 1013.9 |
| 20260905052024 | 76 | 0 | 0.0 | 0.0 | 0.00 | 0.60 | 0.00 | 97 | 1013.9 |
| 20260905051542 | 76 | 0 | 0.0 | 0.0 | 0.00 | 0.60 | 0.00 | 97 | 1013.9 |
| 20260905051024 | 76 | 0 | 0.0 | 0.0 | 0.00 | 0.60 | 0.00 | 97 | 1014.0 |
| 20260905050527 | 76 | 0 | 0.0 | 0.0 | 0.00 | 0.60 | 0.00 | 97 | 1014.1 |
| 20260905050041 | 76 | 0 | 0.0 | 0.0 | 0.00 | 0.60 | 0.00 | 97 | 1014.2 |
| 20260905045528 | 76 | 0 | 0.0 | 0.0 | 0.00 | 0.60 | 0.00 | 97 | 1014.2 |
| 20260905045024 | 76 | 0 | 0.0 | 0.9 | 0.00 | 0.60 | 0.00 | 97 | 1014.3 |
| 20260905044545 | 76 | 0 | 0.0 | 0.9 | 0.00 | 0.60 | 0.00 | 97 | 1014.4 |
| 20260905044020 | 76 | 0 | 0.0 | 0.0 | 0.00 | 0.60 | 0.00 | 97 | 1014.4 |
| 20260905043523 | 76 | 0 | 0.0 | 0.0 | 0.00 | 0.60 | 0.00 | 97 | 1014.4 |
| 20260905043044 | 76 | 0 | 0.0 | 0.0 | 0.00 | 0.60 | 0.00 | 97 | 1014.4 |
| 20260905042519 | 76 | 0 | 0.0 | 0.0 | 0.00 | 0.60 | 0.00 | 97 | 1014.4 |
| 20260905042024 | 76 | 0 | 0.0 | 0.0 | 0.00 | 0.60 | 0.00 | 97 | 1014.4 |
| 20260905041540 | 76 | 0 | 0.0 | 0.0 | 0.00 | 0.60 | 0.00 | 97 | 1014.5 |
| 20260905041024 | 76 | 0 | 0.0 | 0.0 | 0.00 | 0.60 | 0.00 | 97 | 1014.5 |
| 20260905040528 | 76 | 0 | 0.0 | 1.7 | 0.00 | 0.60 | 0.00 | 97 | 1014.5 |
| 20260905040042 | 76 | 0 | 0.0 | 1.7 | 0.00 | 0.60 | 0.00 | 97 | 1014.5 |
| 20260905035523 | 76 | 153 | 0.9 | 1.7 | 0.00 | 0.60 | 0.60 | 97 | 1014.5 |
| 20260905035022 | 76 | 149 | 0.0 | 1.7 | 0.00 | 0.60 | 0.60 | 97 | 1014.5 |
| 20260905034549 | 76 | 0 | 0.0 | 3.5 | 0.00 | 0.60 | 0.60 | 97 | 1014.5 |
| 20260905034023 | 76 | 0 | 0.0 | 3.5 | 0.00 | 0.60 | 0.60 | 97 | 1014.6 |
| 20260905033523 | 76 | 167 | 0.0 | 2.6 | 0.00 | 0.60 | 0.60 | 97 | 1014.5 |
| 20260905033042 | 76 | 0 | 0.0 | 2.6 | 0.00 | 0.60 | 0.60 | 96 | 1014.6 |
| 20260905032519 | 76 | 146 | 0.0 | 4.3 | 0.00 | 0.60 | 0.60 | 97 | 1014.5 |
| 20260905032024 | 76 | 150 | 0.9 | 4.3 | 0.00 | 0.60 | 0.60 | 97 | 1014.6 |
| 20260905031550 | 76 | 166 | 1.7 | 4.3 | 0.00 | 0.60 | 0.60 | 97 | 1014.5 |
| 20260905031025 | 76 | 151 | 0.9 | 4.3 | 0.00 | 0.60 | 0.60 | 97 | 1014.6 |
| 20260905030525 | 76 | 172 | 0.9 | 3.5 | 0.00 | 0.60 | 0.60 | 96 | 1014.6 |
| 20260905030046 | 76 | 142 | 0.9 | 3.5 | 0.00 | 0.60 | 0.60 | 96 | 1014.5 |
| 20260905025525 | 76 | 137 | 1.7 | 3.5 | 0.00 | 0.60 | 0.60 | 96 | 1014.6 |
| 20260905025039 | 76 | 127 | 0.9 | 2.6 | 0.00 | 0.60 | 0.60 | 96 | 1014.6 |
| 20260905024554 | 76 | 0 | 0.0 | 2.6 | 0.00 | 0.60 | 0.60 | 97 | 1014.7 |
| 20260905024023 | 76 | 0 | 0.0 | 0.0 | 0.00 | 0.60 | 0.60 | 97 | 1014.8 |
| 20260905023518 | 76 | 0 | 0.0 | 0.0 | 0.00 | 0.60 | 0.60 | 96 | 1014.7 |
| 20260905023040 | 76 | 0 | 0.0 | 0.0 | 0.00 | 0.60 | 0.60 | 96 | 1014.7 |
| 20260905022524 | 76 | 0 | 0.0 | 0.0 | 0.00 | 0.60 | 0.60 | 96 | 1014.7 |
| 20260905022028 | 76 | 0 | 0.0 | 0.0 | 0.00 | 0.60 | 0.60 | 97 | 1014.7 |
| 20260905021549 | 76 | 0 | 0.0 | 0.0 | 0.00 | 0.60 | 0.60 | 96 | 1014.7 |
| 20260905021020 | 76 | 0 | 0.0 | 0.0 | 0.00 | 0.60 | 0.60 | 96 | 1014.6 |
| 20260905020527 | 76 | 0 | 0.0 | 0.0 | 0.00 | 0.60 | 0.60 | 96 | 1014.6 |
| 20260905020052 | 76 | 0 | 0.0 | 0.0 | 0.00 | 0.60 | 0.60 | 96 | 1014.7 |
| 20260905015523 | 76 | 0 | 0.0 | 0.0 | 0.00 | 0.61 | 0.60 | 96 | 1014.5 |
| 20260905015020 | 76 | 0 | 0.0 | 0.0 | 0.00 | 0.61 | 0.60 | 96 | 1014.6 |
| 20260905014543 | 76 | 0 | 0.0 | 0.0 | 0.00 | 0.61 | 0.60 | 96 | 1014.5 |
| 20260905014019 | 76 | 0 | 0.0 | 0.0 | 0.00 | 0.61 | 0.60 | 96 | 1014.4 |
| 20260905013526 | 76 | 0 | 0.0 | 0.0 | 0.00 | 0.61 | 0.60 | 96 | 1014.3 |
| 20260905013041 | 76 | 0 | 0.0 | 0.0 | 0.00 | 0.61 | 0.60 | 96 | 1014.3 |
| 20260905012526 | 76 | 0 | 0.0 | 0.0 | 0.00 | 0.61 | 0.60 | 96 | 1014.3 |
| 20260905012024 | 76 | 0 | 0.0 | 0.0 | 0.00 | 0.61 | 0.60 | 96 | 1014.2 |
| 20260905011552 | 76 | 0 | 0.0 | 0.0 | 0.00 | 0.61 | 0.60 | 96 | 1014.2 |
| 20260905011027 | 76 | 0 | 0.0 | 0.0 | 0.00 | 0.61 | 0.60 | 96 | 1014.3 |
| 20260905010525 | 76 | 0 | 0.0 | 1.7 | 0.00 | 0.61 | 0.60 | 96 | 1014.1 |
| 20260905010044 | 76 | 0 | 0.0 | 2.6 | 0.00 | 0.61 | 0.60 | 96 | 1014.1 |
| 20260905005523 | 76 | 49 | 0.9 | 2.6 | 0.00 | 0.69 | 0.60 | 96 | 1013.9 |
| 20260905005020 | 76 | 0 | 0.0 | 2.6 | 0.00 | 0.69 | 0.60 | 96 | 1014.0 |
| 20260905004544 | 76 | 105 | 0.9 | 2.6 | 0.00 | 0.69 | 0.60 | 96 | 1014.0 |
| 20260905004018 | 76 | 0 | 0.0 | 2.6 | 0.00 | 0.69 | 0.60 | 96 | 1014.0 |
| 20260905003528 | 76 | 105 | 0.9 | 1.7 | 0.00 | 0.69 | 0.60 | 96 | 1014.0 |
| 20260905003041 | 76 | 0 | 0.0 | 1.7 | 0.00 | 0.69 | 0.60 | 96 | 1013.9 |
| 20260905002522 | 76 | 181 | 0.0 | 0.9 | 0.00 | 0.69 | 0.60 | 96 | 1013.9 |
| 20260905002024 | 76 | 0 | 0.0 | 0.0 | 0.00 | 0.69 | 0.60 | 96 | 1013.8 |
| 20260905001544 | 76 | 0 | 0.0 | 0.0 | 0.00 | 0.69 | 0.60 | 96 | 1013.9 |
| 20260905001022 | 76 | 0 | 0.0 | 1.7 | 0.00 | 0.69 | 0.60 | 96 | 1013.9 |
| 20260905000526 | 76 | 0 | 0.0 | 1.7 | 0.00 | 0.69 | 0.60 | 96 | 1013.9 |
| 20260905000042 | 76 | 0 | 0.0 | 1.7 | 0.00 | 0.69 | 0.60 | 96 | 1014.1 |
| 20260904235522 | 76 | 0 | 0.0 | 4.3 | 0.00 | 1.08 | 0.60 | 96 | 1014.1 |
| 20260904235020 | 76 | 0 | 0.9 | 4.3 | 0.00 | 1.08 | 0.60 | 96 | 1014.2 |
| 20260904234541 | 76 | 158 | 0.9 | 3.5 | 0.00 | 1.08 | 0.60 | 96 | 1014.3 |
| 20260904234026 | 76 | 219 | 0.9 | 3.5 | 0.00 | 1.08 | 0.60 | 96 | 1014.3 |
| 20260904233524 | 77 | 0 | 0.0 | 1.7 | 0.00 | 1.08 | 0.60 | 96 | 1014.3 |
| 20260904233040 | 77 | 0 | 0.0 | 1.7 | 0.00 | 1.08 | 0.60 | 96 | 1014.2 |
| 20260904232524 | 77 | 0 | 0.0 | 0.9 | 0.00 | 1.08 | 0.60 | 96 | 1014.3 |
| 20260904232022 | 77 | 0 | 0.0 | 1.7 | 0.00 | 1.08 | 0.60 | 96 | 1014.3 |
| 20260904231601 | 77 | 0 | 0.0 | 1.7 | 0.00 | 1.08 | 0.60 | 96 | 1014.3 |
| 20260904231023 | 77 | 0 | 0.0 | 0.0 | 0.00 | 1.08 | 0.60 | 96 | 1014.2 |
| 20260904230523 | 77 | 0 | 0.0 | 0.0 | 0.00 | 1.08 | 0.60 | 96 | 1014.2 |
| 20260904230043 | 76 | 0 | 0.0 | 0.0 | 0.00 | 1.08 | 0.60 | 96 | 1014.3 |
| 20260904225519 | 76 | 0 | 0.0 | 0.0 | 0.00 | 1.08 | 0.60 | 96 | 1014.4 |
| 20260904225025 | 76 | 0 | 0.0 | 0.0 | 0.00 | 1.08 | 0.60 | 96 | 1014.5 |
| 20260904224541 | 76 | 0 | 0.0 | 3.5 | 0.01 | 1.08 | 0.60 | 96 | 1014.5 |
| 20260904224024 | 76 | 0 | 0.0 | 3.5 | 0.01 | 1.08 | 0.60 | 95 | 1014.3 |
| 20260904223524 | 76 | 0 | 0.0 | 1.7 | 0.01 | 1.08 | 0.60 | 95 | 1014.4 |
| 20260904223048 | 76 | 0 | 0.0 | 1.7 | 0.02 | 1.08 | 0.60 | 95 | 1014.0 |
| 20260904222526 | 75 | 70 | 0.9 | 1.7 | 0.04 | 1.08 | 0.60 | 95 | 1014.2 |
| 20260904222023 | 75 | 0 | 0.0 | 0.9 | 0.07 | 1.08 | 0.60 | 95 | 1014.0 |
| 20260904221547 | 75 | 0 | 0.0 | 1.7 | 0.08 | 1.08 | 0.60 | 95 | 1013.7 |
| 20260904221021 | 75 | 0 | 0.0 | 3.5 | 0.08 | 1.08 | 0.60 | 95 | 1013.1 |
| 20260904220523 | 75 | 266 | 0.0 | 3.5 | 0.08 | 1.08 | 0.60 | 95 | 1012.8 |
| 20260904220051 | 75 | 0 | 1.7 | 3.5 | 0.09 | 1.08 | 0.60 | 95 | 1012.9 |
| 20260904215518 | 75 | 284 | 0.9 | 6.1 | 0.09 | 1.08 | 0.60 | 95 | 1012.7 |
| 20260904215027 | 75 | 276 | 1.7 | 7.8 | 0.10 | 1.08 | 0.60 | 95 | 1012.9 |
| 20260904214548 | 76 | 266 | 4.3 | 7.8 | 0.18 | 1.07 | 0.58 | 95 | 1013.3 |
| 20260904214021 | 76 | 0 | 0.0 | 1.7 | 0.20 | 1.07 | 0.58 | 95 | 1013.5 |
| 20260904213527 | 76 | 0 | 0.0 | 2.6 | 0.19 | 1.05 | 0.58 | 95 | 1013.5 |
| 20260904213048 | 76 | 288 | 0.9 | 2.6 | 0.21 | 1.05 | 0.58 | 95 | 1013.7 |
| 20260904212524 | 76 | 0 | 0.0 | 1.7 | 0.20 | 1.04 | 0.56 | 95 | 1013.6 |
| 20260904212021 | 76 | 267 | 0.0 | 3.5 | 0.39 | 1.00 | 0.52 | 95 | 1013.8 |
| 20260904211544 | 76 | 0 | 0.0 | 9.6 | 0.42 | 1.00 | 0.52 | 95 | 1013.9 |
| 20260904211020 | 76 | 250 | 4.3 | 9.6 | 0.45 | 1.00 | 0.52 | 95 | 1014.0 |
| 20260904210520 | 77 | 259 | 2.6 | 7.0 | 0.45 | 1.00 | 0.52 | 95 | 1013.9 |
| 20260904210054 | 76 | 111 | 1.7 | 8.7 | 0.45 | 0.99 | 0.51 | 94 | 1013.8 |
| 20260904205524 | 76 | 126 | 2.6 | 8.7 | 0.45 | 0.99 | 0.51 | 94 | 1013.8 |
| 20260904205025 | 76 | 122 | 5.2 | 8.7 | 0.43 | 0.97 | 0.49 | 94 | 1013.9 |
| 20260904204548 | 77 | 96 | 2.6 | 5.2 | 0.36 | 0.88 | 0.40 | 94 | 1013.8 |
| 20260904204026 | 77 | 85 | 1.7 | 5.2 | 0.35 | 0.87 | 0.39 | 94 | 1013.8 |
| 20260904203525 | 77 | 74 | 0.9 | 7.0 | 0.36 | 0.87 | 0.39 | 93 | 1014.0 |
| 20260904203051 | 77 | 5 | 0.9 | 7.0 | 0.34 | 0.85 | 0.37 | 93 | 1013.8 |
| 20260904202522 | 77 | 36 | 2.6 | 7.8 | 0.31 | 0.82 | 0.34 | 92 | 1013.4 |
| 20260904202027 | 77 | 163 | 0.9 | 10.4 | 0.09 | 0.60 | 0.12 | 92 | 1013.5 |
| 20260904201544 | 77 | 153 | 4.3 | 10.4 | 0.06 | 0.57 | 0.09 | 91 | 1013.5 |
| 20260904201024 | 78 | 159 | 4.3 | 10.4 | 0.04 | 0.55 | 0.07 | 92 | 1013.1 |
| 20260904200524 | 78 | 159 | 1.7 | 10.4 | 0.04 | 0.55 | 0.07 | 90 | 1012.9 |
| 20260904200106 | 78 | 217 | 3.5 | 9.6 | 0.03 | 0.54 | 0.06 | 88 | 1013.4 |
| 20260904195523 | 79 | 189 | 3.5 | 9.6 | 0.03 | 0.54 | 0.06 | 88 | 1013.4 |
| 20260904195027 | 80 | 142 | 3.5 | 12.2 | 0.03 | 0.54 | 0.06 | 90 | 1013.3 |
| 20260904194545 | 81 | 246 | 3.5 | 12.2 | 0.01 | 0.52 | 0.04 | 88 | 1012.9 |
| 20260904194023 | 82 | 251 | 7.8 | 12.2 | 0.00 | 0.51 | 0.03 | 84 | 1013.1 |
| 20260904193526 | 84 | 267 | 4.3 | 8.7 | 0.00 | 0.51 | 0.03 | 83 | 1013.4 |
| 20260904193041 | 84 | 259 | 4.3 | 7.0 | 0.00 | 0.51 | 0.03 | 84 | 1013.5 |
| 20260904192523 | 85 | 265 | 3.5 | 8.7 | 0.00 | 0.51 | 0.03 | 84 | 1013.3 |
| 20260904192023 | 85 | 265 | 4.3 | 13.0 | 0.00 | 0.51 | 0.03 | 82 | 1013.2 |
| 20260904191547 | 85 | 280 | 7.8 | 13.0 | 0.00 | 0.51 | 0.03 | 81 | 1013.4 |
| 20260904191021 | 86 | 288 | 8.7 | 12.2 | 0.00 | 0.51 | 0.03 | 81 | 1013.4 |
| 20260904190524 | 87 | 284 | 7.8 | 12.2 | 0.00 | 0.51 | 0.03 | 78 | 1013.3 |
| 20260904190050 | 88 | 267 | 1.7 | 7.0 | 0.03 | 0.51 | 0.03 | 76 | 1013.4 |
| 20260904185525 | 89 | 253 | 2.6 | 7.0 | 0.03 | 0.51 | 0.03 | 73 | 1013.5 |
| 20260904185021 | 90 | 117 | 0.0 | 7.0 | 0.03 | 0.51 | 0.03 | 77 | 1013.5 |
| 20260904184542 | 89 | 265 | 1.7 | 5.2 | 0.03 | 0.51 | 0.03 | 78 | 1013.5 |
| 20260904184020 | 89 | 70 | 0.9 | 3.5 | 0.03 | 0.51 | 0.03 | 81 | 1013.6 |
| 20260904183519 | 89 | 0 | 1.7 | 3.5 | 0.03 | 0.51 | 0.03 | 82 | 1013.7 |
| 20260904183042 | 88 | 89 | 0.0 | 1.7 | 0.03 | 0.51 | 0.03 | 86 | 1014.0 |
| 20260904182535 | 87 | 0 | 0.0 | 0.0 | 0.03 | 0.51 | 0.03 | 89 | 1014.0 |
| 20260904182024 | 85 | 0 | 0.0 | 0.9 | 0.03 | 0.51 | 0.03 | 93 | 1014.1 |
| 20260904181549 | 84 | 0 | 0.0 | 3.5 | 0.03 | 0.51 | 0.03 | 90 | 1014.2 |
| 20260904181021 | 85 | 0 | 0.9 | 4.3 | 0.03 | 0.51 | 0.03 | 88 | 1014.3 |
| 20260904180524 | 85 | 78 | 0.9 | 4.3 | 0.03 | 0.51 | 0.03 | 88 | 1014.5 |
| 20260904180048 | 87 | 147 | 1.7 | 6.1 | 0.00 | 0.48 | 0.00 | 81 | 1014.4 |
| 20260904175520 | 87 | 110 | 1.7 | 6.1 | 0.00 | 0.48 | 0.00 | 77 | 1014.5 |
| 20260904175025 | 89 | 128 | 0.9 | 4.3 | 0.00 | 0.48 | 0.00 | 76 | 1014.5 |
| 20260904174542 | 89 | 0 | 0.9 | 5.2 | 0.00 | 0.48 | 0.00 | 78 | 1014.6 |
| 20260904174022 | 88 | 0 | 1.7 | 5.2 | 0.00 | 0.48 | 0.00 | 78 | 1014.7 |
| 20260904173525 | 89 | 162 | 1.7 | 6.1 | 0.00 | 0.48 | 0.00 | 75 | 1014.6 |
| 20260904173100 | 89 | 165 | 1.7 | 7.0 | 0.00 | 0.48 | 0.00 | 77 | 1014.8 |
| 20260904172524 | 87 | 165 | 2.6 | 7.0 | 0.00 | 0.48 | 0.00 | 79 | 1014.8 |
| 20260904172023 | 87 | 95 | 0.9 | 6.1 | 0.00 | 0.48 | 0.00 | 79 | 1014.9 |
| 20260904171546 | 88 | 0 | 1.7 | 6.1 | 0.00 | 0.48 | 0.00 | 81 | 1014.9 |
| 20260904171022 | 87 | 128 | 1.7 | 5.2 | 0.00 | 0.48 | 0.00 | 78 | 1014.8 |
| 20260904170522 | 89 | 192 | 1.7 | 5.2 | 0.00 | 0.48 | 0.00 | 74 | 1015.0 |
| 20260904170041 | 90 | 0 | 0.9 | 6.1 | 0.00 | 0.48 | 0.00 | 75 | 1015.0 |
| 20260904165524 | 89 | 126 | 1.7 | 6.1 | 0.00 | 0.48 | 0.00 | 78 | 1015.0 |
| 20260904165025 | 88 | 157 | 1.7 | 5.2 | 0.00 | 0.48 | 0.00 | 80 | 1015.1 |
| 20260904164540 | 88 | 160 | 0.9 | 4.3 | 0.00 | 0.48 | 0.00 | 76 | 1015.2 |
| 20260904164024 | 90 | 188 | 0.9 | 5.2 | 0.00 | 0.48 | 0.00 | 75 | 1015.4 |
| 20260904163524 | 90 | 148 | 0.9 | 5.2 | 0.00 | 0.48 | 0.00 | 77 | 1015.4 |
| 20260904163046 | 90 | 229 | 0.0 | 3.5 | 0.00 | 0.48 | 0.00 | 80 | 1015.4 |
| 20260904162523 | 89 | 112 | 0.9 | 4.3 | 0.00 | 0.48 | 0.00 | 78 | 1015.5 |
| 20260904162023 | 89 | 169 | 1.7 | 5.2 | 0.00 | 0.48 | 0.00 | 76 | 1015.5 |
| 20260904161540 | 89 | 135 | 0.9 | 5.2 | 0.00 | 0.48 | 0.00 | 81 | 1015.6 |
| 20260904161028 | 87 | 261 | 0.9 | 3.5 | 0.00 | 0.48 | 0.00 | 77 | 1015.6 |
| 20260904160525 | 87 | 241 | 0.0 | 3.5 | 0.00 | 0.48 | 0.00 | 80 | 1015.6 |
| 20260904160047 | 85 | 0 | 0.0 | 5.2 | 0.00 | 0.48 | 0.00 | 81 | 1015.7 |
| 20260904155525 | 86 | 223 | 1.7 | 5.2 | 0.00 | 0.48 | 0.00 | 79 | 1015.7 |
| 20260904155024 | 85 | 0 | 0.0 | 4.3 | 0.00 | 0.48 | 0.00 | 83 | 1015.7 |
| 20260904154550 | 85 | 0 | 0.9 | 7.0 | 0.00 | 0.48 | 0.00 | 81 | 1015.9 |
| 20260904154024 | 86 | 126 | 1.7 | 7.0 | 0.00 | 0.48 | 0.00 | 81 | 1015.8 |
| 20260904153525 | 87 | 161 | 2.6 | 7.8 | 0.00 | 0.48 | 0.00 | 82 | 1015.7 |
| 20260904153047 | 86 | 0 | 1.7 | 7.8 | 0.00 | 0.48 | 0.00 | 81 | 1015.6 |
| 20260904152523 | 86 | 126 | 2.6 | 6.1 | 0.00 | 0.48 | 0.00 | 83 | 1015.5 |
| 20260904152022 | 86 | 131 | 0.9 | 5.2 | 0.00 | 0.48 | 0.00 | 83 | 1015.5 |
| 20260904151543 | 86 | 0 | 1.7 | 5.2 | 0.00 | 0.48 | 0.00 | 85 | 1015.5 |
| 20260904151018 | 86 | 288 | 0.9 | 6.1 | 0.00 | 0.48 | 0.00 | 84 | 1015.4 |
| 20260904150519 | 86 | 177 | 1.7 | 6.1 | 0.00 | 0.48 | 0.00 | 85 | 1015.4 |
| 20260904150050 | 85 | 182 | 0.9 | 7.0 | 0.00 | 0.48 | 0.00 | 83 | 1015.2 |
| 20260904145523 | 85 | 171 | 2.6 | 7.0 | 0.00 | 0.48 | 0.00 | 86 | 1015.2 |
| 20260904145023 | 85 | 164 | 0.9 | 5.2 | 0.00 | 0.48 | 0.00 | 87 | 1015.2 |
| 20260904144547 | 85 | 167 | 0.9 | 7.8 | 0.00 | 0.48 | 0.00 | 88 | 1015.2 |
| 20260904144024 | 84 | 153 | 0.9 | 7.8 | 0.00 | 0.48 | 0.00 | 88 | 1015.3 |
| 20260904143528 | 84 | 0 | 0.9 | 6.1 | 0.00 | 0.48 | 0.00 | 87 | 1015.3 |
| 20260904143044 | 83 | 163 | 1.7 | 6.1 | 0.00 | 0.48 | 0.00 | 88 | 1015.2 |
| 20260904142524 | 84 | 0 | 0.9 | 3.5 | 0.00 | 0.48 | 0.00 | 89 | 1015.3 |
| 20260904142024 | 83 | 0 | 0.0 | 6.1 | 0.00 | 0.48 | 0.00 | 88 | 1015.2 |
| 20260904141551 | 83 | 0 | 1.7 | 6.1 | 0.00 | 0.48 | 0.00 | 90 | 1015.2 |
| 20260904141032 | 82 | 171 | 1.7 | 4.3 | 0.00 | 0.48 | 0.00 | 90 | 1015.3 |
| 20260904140527 | 82 | 109 | 0.9 | 4.3 | 0.00 | 0.48 | 0.00 | 91 | 1015.2 |
| 20260904135524 | 82 | 0 | 0.9 | 5.2 | 0.00 | 0.48 | 0.00 | 93 | 1015.3 |
| 20260904135025 | 81 | 85 | 1.7 | 5.2 | 0.00 | 0.48 | 0.00 | 93 | 1015.2 |
| 20260904134609 | 81 | 144 | 1.7 | 5.2 | 0.00 | 0.48 | 0.00 | 93 | 1015.3 |
| 20260904134024 | 81 | 71 | 1.7 | 5.2 | 0.00 | 0.48 | 0.00 | 93 | 1015.2 |
| 20260904133520 | 80 | 167 | 0.9 | 5.2 | 0.00 | 0.48 | 0.00 | 94 | 1015.2 |
| 20260904133046 | 80 | 0 | 1.7 | 5.2 | 0.00 | 0.48 | 0.00 | 95 | 1015.2 |
| 20260904132523 | 80 | 0 | 0.0 | 4.3 | 0.00 | 0.48 | 0.00 | 95 | 1015.1 |
| 20260904132020 | 79 | 143 | 1.7 | 4.3 | 0.00 | 0.48 | 0.00 | 95 | 1015.0 |
| 20260904131541 | 79 | 125 | 0.9 | 3.5 | 0.00 | 0.48 | 0.00 | 96 | 1015.0 |
| 20260904131024 | 79 | 118 | 1.7 | 4.3 | 0.00 | 0.48 | 0.00 | 96 | 1014.9 |
| 20260904130524 | 78 | 120 | 1.7 | 4.3 | 0.00 | 0.48 | 0.00 | 96 | 1015.0 |
| 20260904130048 | 78 | 180 | 0.9 | 3.5 | 0.00 | 0.48 | 0.00 | 97 | 1015.0 |
| 20260904125529 | 78 | 155 | 1.7 | 5.2 | 0.00 | 0.48 | 0.00 | 97 | 1014.9 |
| 20260904125024 | 77 | 124 | 2.6 | 5.2 | 0.00 | 0.48 | 0.00 | 97 | 1014.9 |
| 20260904124543 | 77 | 147 | 1.7 | 4.3 | 0.00 | 0.48 | 0.00 | 97 | 1014.9 |
| 20260904124019 | 77 | 148 | 0.9 | 3.5 | 0.00 | 0.48 | 0.00 | 97 | 1014.9 |
| 20260904123525 | 77 | 130 | 0.9 | 2.6 | 0.00 | 0.48 | 0.00 | 97 | 1014.8 |
| 20260904123041 | 77 | 83 | 0.9 | 3.5 | 0.00 | 0.48 | 0.00 | 97 | 1015.0 |
| 20260904122526 | 76 | 86 | 0.0 | 3.5 | 0.00 | 0.48 | 0.00 | 97 | 1014.9 |
| 20260904122023 | 76 | 0 | 0.9 | 3.5 | 0.00 | 0.48 | 0.00 | 97 | 1014.8 |
| 20260904121552 | 76 | 127 | 1.7 | 3.5 | 0.00 | 0.48 | 0.00 | 97 | 1014.5 |
| 20260904121025 | 76 | 120 | 0.9 | 2.6 | 0.00 | 0.48 | 0.00 | 97 | 1014.5 |
| 20260904120526 | 75 | 105 | 0.9 | 2.6 | 0.00 | 0.48 | 0.00 | 97 | 1014.5 |
| 20260904120050 | 75 | 108 | 0.9 | 1.7 | 0.00 | 0.48 | 0.00 | 97 | 1014.4 |
| 20260904115525 | 75 | 0 | 0.0 | 0.0 | 0.00 | 0.48 | 0.00 | 97 | 1014.4 |
| 20260904115024 | 75 | 0 | 0.0 | 0.0 | 0.00 | 0.48 | 0.00 | 97 | 1014.3 |
| 20260904114544 | 74 | 0 | 0.0 | 0.0 | 0.00 | 0.48 | 0.00 | 97 | 1014.4 |
| 20260904114028 | 74 | 0 | 0.0 | 0.0 | 0.00 | 0.48 | 0.00 | 97 | 1014.3 |
| 20260904113523 | 74 | 0 | 0.0 | 0.0 | 0.00 | 0.48 | 0.00 | 97 | 1014.3 |
| 20260904113042 | 74 | 0 | 0.0 | 0.0 | 0.00 | 0.48 | 0.00 | 97 | 1014.1 |
| 20260904112520 | 74 | 0 | 0.0 | 0.0 | 0.00 | 0.48 | 0.00 | 97 | 1014.1 |
| 20260904112024 | 74 | 0 | 0.0 | 0.0 | 0.00 | 0.48 | 0.00 | 97 | 1014.1 |
| 20260904111543 | 74 | 0 | 0.0 | 0.0 | 0.00 | 0.48 | 0.00 | 97 | 1014.2 |
| 20260904111024 | 74 | 0 | 0.0 | 0.0 | 0.00 | 0.48 | 0.00 | 97 | 1014.2 |
| 20260904110525 | 74 | 0 | 0.0 | 0.0 | 0.00 | 0.48 | 0.00 | 97 | 1014.2 |
| 20260904110047 | 74 | 0 | 0.0 | 0.0 | 0.00 | 0.48 | 0.00 | 97 | 1014.1 |
| 20260904105525 | 74 | 0 | 0.0 | 0.0 | 0.00 | 0.48 | 0.00 | 97 | 1014.1 |
| 20260904105024 | 74 | 0 | 0.0 | 0.0 | 0.00 | 0.48 | 0.00 | 97 | 1014.0 |
| 20260904104544 | 73 | 0 | 0.0 | 0.0 | 0.00 | 0.48 | 0.00 | 97 | 1013.8 |
| 20260904104019 | 73 | 0 | 0.0 | 0.0 | 0.00 | 0.48 | 0.00 | 97 | 1013.8 |
| 20260904103526 | 73 | 0 | 0.0 | 0.0 | 0.00 | 0.48 | 0.00 | 97 | 1013.9 |
| 20260904103041 | 73 | 0 | 0.0 | 0.0 | 0.00 | 0.48 | 0.00 | 97 | 1013.8 |
| 20260904102525 | 73 | 0 | 0.0 | 0.0 | 0.00 | 0.48 | 0.00 | 97 | 1013.8 |
| 20260904102023 | 73 | 0 | 0.0 | 0.0 | 0.00 | 0.48 | 0.00 | 97 | 1013.8 |
| 20260904101539 | 73 | 0 | 0.0 | 0.0 | 0.00 | 0.48 | 0.00 | 97 | 1013.6 |
| 20260904101024 | 73 | 0 | 0.0 | 0.0 | 0.00 | 0.48 | 0.00 | 97 | 1013.6 |
| 20260904100524 | 74 | 0 | 0.0 | 0.0 | 0.00 | 0.48 | 0.00 | 97 | 1013.6 |
| 20260904100049 | 73 | 0 | 0.0 | 0.0 | 0.00 | 0.48 | 0.00 | 97 | 1013.6 |
| 20260904095524 | 74 | 0 | 0.0 | 0.0 | 0.00 | 0.48 | 0.00 | 96 | 1013.6 |
| 20260904095021 | 74 | 0 | 0.0 | 0.0 | 0.00 | 0.48 | 0.00 | 97 | 1013.6 |
| 20260904094552 | 74 | 0 | 0.0 | 0.0 | 0.00 | 0.48 | 0.00 | 96 | 1013.5 |
| 20260904094019 | 74 | 0 | 0.0 | 0.0 | 0.00 | 0.48 | 0.00 | 97 | 1013.5 |
| 20260904093519 | 74 | 0 | 0.0 | 0.0 | 0.00 | 0.48 | 0.00 | 96 | 1013.4 |
| 20260904093039 | 74 | 0 | 0.0 | 0.0 | 0.00 | 0.48 | 0.00 | 96 | 1013.5 |
| 20260904092525 | 74 | 0 | 0.0 | 0.0 | 0.00 | 0.48 | 0.00 | 96 | 1013.5 |
| 20260904092024 | 74 | 0 | 0.0 | 0.0 | 0.00 | 0.48 | 0.00 | 96 | 1013.4 |
| 20260904091547 | 74 | 0 | 0.0 | 0.0 | 0.00 | 0.48 | 0.00 | 96 | 1013.4 |
| 20260904091021 | 74 | 0 | 0.0 | 0.0 | 0.00 | 0.48 | 0.00 | 96 | 1013.3 |
| 20260904090521 | 74 | 0 | 0.0 | 0.0 | 0.00 | 0.48 | 0.00 | 96 | 1013.3 |
| 20260904090053 | 74 | 0 | 0.0 | 0.0 | 0.00 | 0.48 | 0.00 | 96 | 1013.3 |